Charleston, WV

10:05 PM EST on February 20, 2017 (GMT -0500)
Yeager Airport

Weather History for KCRW - May, 2013

Change the Weather History Date:

Thursday, May 9, 2013

  Actual Average Record
Temperature  
Mean Temperature 65 °F 62 °F  
Max Temperature 79 °F 73 °F 96 °F (1930)
Min Temperature 51 °F 51 °F 28 °F (1947)
Degree Days  
Heating Degree Days 0 5  
Month to date heating degree days 22 48  
Since 1 July heating degree days 4438 4396  
Cooling Degree Days 0 2  
Month to date cooling degree days 6 11  
Year to date cooling degree days 45 43  
Growing Degree Days 15 (Base 50)    
Moisture  
Dew Point 53 °F    
Average Humidity 70    
Maximum Humidity 100    
Minimum Humidity 39    
Precipitation  
Precipitation 0.00 in 0.15 in 1.42 in (1952)
Month to date precipitation 1.80 1.30  
Year to date precipitation 12.67 14.64  
Snow  
Snow 0.00 in - - ()
Month to date snowfall 0.0  
Since 1 September snowfall 25.3  
Snow Depth 0.00 in    
Sea Level Pressure  
Sea Level Pressure 30.01 in    
Wind  
Wind Speed 4 mph (WSW)    
Max Wind Speed 13 mph    
Max Gust Speed 20 mph    
Visibility 7 miles    
Events Fog    
T = Trace of Precipitation, MM = Missing Value Source: NWS Daily Summary

Daily Weather History Graph

Daily Weather History Graph

Search for Another Location

Airport or City:

Trip Planner

Search our weather history database for the weather conditions in past years. The results will help you decide how hot, cold, wet, or windy it might be!

Date:

Astronomy

May. 09, 2013 Rise Set
Actual Time 6:20 AM EDT 8:25 PM EDT
Civil Twilight 5:51 AM EDT 8:54 PM EDT
Nautical Twilight 5:15 AM EDT 9:30 PM EDT
Astronomical Twilight 4:37 AM EDT 10:09 PM EDT
Moon 6:03 AM EDT (5/9) 8:19 PM EDT (5/9)
Length of Visible Light 15h 03m
Length of Day
14h 05m
Waning Crescent, 0% of the Moon is Illuminated
May 9
Waning Crescent
May 9
New
May 18
First Quarter
May 25
Full
May 31
Last Quarter

Hourly Weather History & Observations

Time (EDT) Temp. Dew Point Humidity Pressure Visibility Wind Dir Wind Speed Gust Speed Precip Events Conditions
12:54 AM 55.0 °F 53.1 °F 93% 29.99 in 6.0 mi Calm Calm - N/A   Mostly Cloudy
1:54 AM 54.0 °F 52.0 °F 93% 29.99 in 6.0 mi Calm Calm - N/A   Mostly Cloudy
2:54 AM 54.0 °F 52.0 °F 93% 29.97 in 6.0 mi Calm Calm - N/A   Scattered Clouds
3:42 AM 53.6 °F 51.8 °F 94% 29.98 in 4.0 mi Calm Calm - N/A   Mostly Cloudy
3:54 AM 52.0 °F 50.0 °F 93% 29.97 in 4.0 mi Calm Calm - N/A   Scattered Clouds
4:54 AM 52.0 °F 50.0 °F 93% 29.98 in 0.2 mi Calm Calm - N/A Fog Fog
5:26 AM 53.6 °F 51.8 °F 94% 29.99 in 1.0 mi Calm Calm - N/A   Scattered Clouds
5:54 AM 52.0 °F 51.1 °F 97% 29.99 in 1.0 mi Calm Calm - N/A   Mostly Cloudy
6:15 AM 51.8 °F 50.0 °F 94% 30.01 in 0.2 mi WSW 3.5 mph - N/A Fog Fog
6:54 AM 54.0 °F 53.1 °F 97% 30.02 in 0.2 mi Calm Calm - N/A Fog Fog
7:07 AM 53.6 °F 53.6 °F 100% 30.04 in 4.0 mi SSW 5.8 mph - N/A   Scattered Clouds
7:54 AM 55.9 °F 54.0 °F 93% 30.04 in 8.0 mi WSW 3.5 mph - N/A   Partly Cloudy
8:54 AM 60.1 °F 55.0 °F 83% 30.06 in 10.0 mi SW 6.9 mph - N/A   Partly Cloudy
9:54 AM 64.0 °F 55.0 °F 73% 30.05 in 10.0 mi SW 6.9 mph - N/A   Clear
10:54 AM 66.9 °F 55.9 °F 68% 30.05 in 10.0 mi SW 4.6 mph - N/A   Partly Cloudy
11:54 AM 71.1 °F 55.9 °F 59% 30.05 in 10.0 mi Variable 4.6 mph - N/A   Partly Cloudy
12:54 PM 73.4 °F 55.4 °F 53% 30.06 in 10.0 mi West 6.9 mph - N/A   Scattered Clouds
1:54 PM 75.0 °F 54.0 °F 48% 30.04 in 10.0 mi Variable 3.5 mph - N/A   Scattered Clouds
2:54 PM 75.0 °F 53.1 °F 46% 30.03 in 10.0 mi WSW 11.5 mph - N/A   Scattered Clouds
3:54 PM 77.0 °F 54.0 °F 45% 30.01 in 10.0 mi West 10.4 mph - N/A   Scattered Clouds
4:54 PM 77.0 °F 50.0 °F 39% 29.99 in 10.0 mi West 6.9 mph 19.6 mph N/A   Scattered Clouds
5:54 PM 77.0 °F 51.1 °F 40% 29.99 in 10.0 mi SW 9.2 mph - N/A   Scattered Clouds
6:54 PM 75.0 °F 52.0 °F 44% 29.99 in 10.0 mi West 8.1 mph - N/A   Scattered Clouds
7:54 PM 73.0 °F 53.1 °F 49% 30.00 in 10.0 mi SW 3.5 mph - N/A   Partly Cloudy
8:54 PM 68.0 °F 55.9 °F 65% 30.00 in 10.0 mi Calm Calm - N/A   Partly Cloudy
9:54 PM 64.9 °F 55.9 °F 73% 30.01 in 10.0 mi Calm Calm - N/A   Clear
10:54 PM 64.0 °F 55.0 °F 73% 30.02 in 10.0 mi Calm Calm - N/A   Clear
11:54 PM 61.0 °F 55.9 °F 83% 30.02 in 10.0 mi Calm Calm - N/A   Scattered Clouds